Tracking 28790 objects as of 19-Apr-2024
HD Live streaming from Space Station
objects crossing your sky now

COSMOS 1486

Track COSMOS 1486 now!
10-day predictions
COSMOS 1486 is classified as:


NORAD ID: 14240
Int'l Code: 1983-079A
Perigee: 774.6 km
Apogee: 794.3 km
Inclination: 74.1 °
Period: 100.4 minutes
Semi major axis: 7155 km
RCS: 2.07 m2 (large)
Launch date: August 3, 1983
Source: Commonwealth of Independent States (former USSR) (CIS)
Launch site: PLESETSK MISSILE AND SPACE COMPLEX (PKMTR)
Your satellite tracking list
Your tracking list is empty




NASA's NSSDC Master Catalog

Two Line Element Set (TLE):
1 14240U 83079A   24109.90241543  .00000575  00000-0  21351-3 0  9994
2 14240  74.0580  54.9422 0013739 173.3691 242.8363 14.34332067128569
Source of the keplerian elements: AFSPC